Location: Brown Observing Site
(43.4354°N, 116.3366°W)
Time: 06:32:58
(UTC-06:00)

Envisat - Pass Details

Date: 09 October 2020
Orbit: 764 x 766 km, 98.1° (Epoch: 26 October)

Event Time Altitude Azimuth Distance (km) Brightness Sun altitude
Rises 07:09:21 0° 21° (NNE) 3,239 6.5 -8.7°
Reaches altitude 10° 07:11:52 10° 30° (NNE) 2,308 5.9 -8.2°
Maximum altitude 07:16:31 36° 97° (E) 1,207 4.9 -7.4°
Drops below altitude 10° 07:21:08 10° 163° (SSE) 2,292 5.7 -6.6°
Sets 07:23:36 0° 172° (S) 3,213 6.4 -6.1°
